CAPE
9 8 5 0 0 7 0 0 0 0 0 0 0 0 0 0 0 0 0 0 0 0 0 0 0 0 0 0 0 0 0 0 0 0 0 0 0 0 0 0 0 0 0 0
23 17 0 0 0 1 0 0 0 0 0 0 0 0 0 0 0 0 0 0 0 0 0 0 0 0 0 0 0 0 0 0 0 0 0 0 0 0 0 0 0 0 0 0
6 0 3 13 10 7 15 10 0 0 0 0 0 0 0 0 0 0 0 0 0 0 0 0 0 0 0 0 0 0 0 0 0 0 0 0 0 0 0 0 0 0 0 0
6 0 0 6 8 4 4 5 0 0 0 0 0 0 0 0 0 0 0 0 0 0 0 0 0 0 7 3 0 0 0 0 0 0 0 0 0 0 0 0 0 0 0 0
2 1 13 6 4 12 15 6 0 0 0 0 0 0 0 0 0 0 0 0 0 0 0 0 0 0 0 11 24 20 0 0 0 0 0 0 0 0 0 0 0 0 0 0
0 0 15 10 29 7 0 0 0 0 0 0 0 0 0 0 0 0 0 0 0 0 0 0 0 0 0 1 15 15 25 11 0 0 0 0 0 0 0 0 0 0 0 0
1 13 0 1 11 0 0 0 0 4 1 1 0 0 0 0 0 0 0 0 0 0 0 0 0 0 0 0 0 2 2 6 4 0 0 0 0 0 0 0 0 0 0 0
16 5 0 5 7 0 3 8 0 0 0 0 0 0 0 0 0 0 0 0 0 0 0 0 0 0 0 0 0 0 0 0 0 0 0 0 0 0 0 0 0 0 0 0
1 0 0 9 0 0 0 4 0 0 0 0 0 0 0 0 0 0 0 0 0 0 0 0 0 0 0 0 0 0 0 0 0 0 0 0 0 0 10 1 0 0 0 0
0 1 0 0 0 0 0 0 0 0 0 0 0 0 0 0 0 0 0 0 0 0 0 0 0 0 0 0 0 0 0 0 0 0 0 0 0 0 0 0 0 0 0 0
0 0 2 0 0 0 0 0 1 0 0 0 0 0 0 0 0 0 0 0 0 0 0 0 0 0 0 0 0 0 0 0 0 0 0 0 0 0 0 0 0 0 0 0
0 0 0 0 0 0 0 0 0 0 0 0 0 0 0 0 0 0 0 0 0 0 0 0 0 0 0 0 0 0 0 0 0 0 0 0 0 0 0 0 0 0 0 0
0 0 0 0 0 0 0 0 0 0 0 0 0 0 0 0 0 0 0 0 0 0 0 0 0 0 0 0 0 0 0 0 0 0 0 0 0 0 0 0 0 0 0 0
0 0 0 0 0 0 0 0 0 0 0 0 0 0 0 0 0 0 0 0 0 0 0 0 0 0 0 0 0 0 0 0 0 0 0 0 0 0 0 0 0 0 0 0
0 0 0 0 0 0 0 0 0 0 0 0 0 0 0 0 0 0 0 0 0 0 0 0 0 0 0 0 0 0 0 0 0 0 0 0 0 0 0 0 0 0 0 0
0 0 0 0 0 0 0 0 0 0 0 0 0 0 0 0 0 0 0 0 0 0 0 0 0 0 0 0 0 0 0 0 0 0 0 0 0 0 0 0 0 0 0 0
0 0 0 0 0 0 0 0 0 0 0 0 0 0 0 0 0 0 0 0 0 0 0 0 0 0 0 0 0 0 0 0 0 0 0 0 0 0 0 0 0 0 0 0
0 0 0 0 0 0 0 0 0 0 0 0 0 0 0 0 0 0 0 0 0 0 0 0 0 0 0 0 0 0 0 0 0 0 0 0 0 0 0 0 0 0 0 0
0 0 0 0 0 0 0 0 0 0 0 0 0 0 0 0 0 0 0 0 0 0 0 0 0 0 0 0 0 0 0 0 0 0 0 0 0 0 0 0 0 0 0 0
0 0 0 0 0 0 0 0 0 0 0 0 0 0 0 0 0 0 0 0 0 0 0 0 0 0 0 0 0 0 0 0 0 0 0 0 0 0 0 0 0 0 0 0
0 0 0 0 0 0 0 0 0 0 0 0 0 0 0 0 0 0 0 0 0 0 0 0 0 0 0 0 0 0 0 0 0 0 0 0 0 0 0 0 0 0 0 0
0 0 0 0 0 0 0 0 0 0 0 0 0 0 0 0 0 0 0 0 0 0 0 0 0 0 0 0 0 0 0 0 0 0 0 0 0 0 0 0 0 0 0 0
0 0 0 0 0 0 0 0 0 0 0 0 0 0 0 0 0 0 0 0 0 0 0 0 0 0 0 0 0 0 0 0 0 0 0 0 0 0 0 0 0 0 0 0
0 0 0 0 0 0 0 0 0 0 0 0 0 0 0 0 0 0 0 0 0 0 0 0 0 0 0 0 0 0 0 0 0 0 0 0 0 0 0 0 0 0 0 0
0 0 0 0 0 0 0 0 0 0 0 0 0 0 0 0 0 0 0 0 0 0 0 0 0 0 0 0 0 0 0 0 0 0 0 0 0 0 0 0 0 0 0 0
0 0 0 0 0 0 0 0 0 0 0 0 0 0 0 0 0 0 0 0 0 0 0 0 0 0 0 0 0 0 0 0 0 0 0 0 0 0 0 0 0 0 0 0
CIN
-7 -1 -1 -0 -0 -4 -0 -0 -0 -0 -0 -0 -0 -0 -0 -0 -0 -0 -0 -0 -0 -0 -0 -0 -0 -0 -0 -0 -0 -0 -0 -0 -0 -0 -0 -0 -0 -0 -0 -0 -0 -0 -0 -0
-8 -0 -0 -0 -0 -1 -4 -0 -0 -0 -0 -0 -0 -0 -0 -0 -0 -0 -0 -0 -0 -0 -0 -0 -0 -0 -0 -0 -0 -0 -0 -0 -0 -0 -0 -0 -0 -0 -0 -0 -0 -0 -0 -0
-0 -0 -0 -2 -1 -1 -4 -8 -16 -0 -0 -0 -0 -0 -0 -0 -0 -0 -0 -0 -0 -0 -0 -0 -0 -0 -0 -0 -0 -0 -0 -0 -0 -0 -0 -0 -0 -0 -0 -0 -0 -0 -0 -0
-1 -0 -0 -1 -2 -1 -4 -15 -0 -0 -0 -0 -0 -0 -0 -0 -0 -0 -0 -0 -0 -0 -0 -0 -0 -0 -472 -184 -0 -0 -0 -0 -0 -0 -0 -0 -0 -0 -0 -0 -0 -0 -0 -0
-5 -2 -3 -1 -2 -3 -6 -20 -0 -0 -0 -0 -0 -0 -0 -0 -0 -0 -0 -0 -0 -0 -0 -0 -0 -0 -0 -403 -393 -374 -25 -0 -0 -0 -0 -0 -0 -0 -0 -0 -0 -0 -0 -0
-0 -0 -8 -2 -3 -16 -0 -0 -0 -0 -0 -0 -0 -0 -0 -0 -0 -0 -0 -0 -0 -0 -0 -0 -0 -0 -0 -137 -384 -372 -354 -231 -0 -0 -0 -0 -0 -0 -0 -0 -0 -0 -0 -0
-18 -26 -0 -5 -8 -0 -0 -13 -0 -0 -6 -1 -0 -0 -0 -0 -0 -0 -0 -0 -0 -0 -0 -0 -0 -0 -0 -0 -0 -157 -139 -128 -127 -0 -0 -0 -0 -0 -0 -0 -0 -0 -0 -0
-3 -5 -0 -38 -7 -0 -14 -5 -0 -0 -0 -0 -0 -0 -0 -0 -0 -0 -0 -0 -0 -0 -0 -0 -0 -0 -0 -0 -0 -0 -0 -0 -0 -0 -0 -0 -0 -0 -0 -0 -0 -0 -0 -0
-2 -4 -0 -42 -0 -0 -0 -7 -0 -0 -0 -0 -0 -0 -0 -0 -0 -0 -0 -0 -0 -0 -0 -0 -0 -0 -0 -0 -0 -0 -0 -0 -0 -0 -0 -0 -0 -0 -211 -74 -0 -0 -0 -0
-0 -0 -0 -0 -0 -0 -0 -0 -0 -0 -0 -0 -0 -0 -0 -0 -0 -0 -0 -0 -0 -0 -0 -0 -0 -0 -0 -0 -0 -0 -0 -0 -0 -0 -0 -0 -0 -0 -0 -0 -0 -0 -0 -0
-0 -0 -0 -0 -0 -0 -0 -0 -16 -0 -0 -0 -0 -0 -0 -0 -0 -0 -0 -0 -0 -0 -0 -0 -0 -0 -0 -0 -0 -0 -0 -0 -0 -0 -0 -0 -0 -0 -0 -0 -0 -0 -0 -0
-0 -0 -0 -0 -0 -0 -0 -0 -0 -0 -0 -0 -0 -0 -0 -0 -0 -0 -0 -0 -0 -0 -0 -0 -0 -0 -0 -0 -0 -0 -0 -0 -0 -0 -0 -0 -0 -0 -0 -0 -0 -0 -0 -0
-0 -0 -0 -0 -0 -0 -0 -0 -0 -0 -0 -0 -0 -0 -0 -0 -0 -0 -0 -0 -0 -0 -0 -0 -0 -0 -0 -0 -0 -0 -0 -0 -0 -0 -0 -0 -0 -0 -0 -0 -0 -0 -0 -0
-0 -0 -0 -0 -0 -0 -0 -0 -0 -0 -0 -0 -0 -0 -0 -0 -0 -0 -0 -0 -0 -0 -0 -0 -0 -0 -0 -0 -0 -0 -0 -0 -0 -0 -0 -0 -0 -0 -0 -0 -0 -0 -0 -0
-0 -0 -0 -0 -0 -0 -0 -0 -0 -0 -0 -0 -0 -0 -0 -0 -0 -0 -0 -0 -0 -0 -0 -0 -0 -0 -0 -0 -0 -0 -0 -0 -0 -0 -0 -0 -0 -0 -0 -0 -0 -0 -0 -0
-0 -0 -0 -0 -0 -0 -0 -0 -0 -0 -0 -0 -0 -0 -0 -0 -0 -0 -0 -0 -0 -0 -0 -0 -0 -0 -0 -0 -0 -0 -0 -0 -0 -0 -0 -0 -0 -0 -0 -0 -0 -0 -0 -0
-0 -0 -0 -0 -0 -0 -0 -0 -0 -0 -0 -0 -0 -0 -0 -0 -0 -0 -0 -0 -0 -0 -0 -0 -0 -0 -0 -0 -0 -0 -0 -0 -0 -0 -0 -0 -0 -0 -0 -0 -0 -0 -0 -0
-0 -0 -0 -0 -0 -0 -0 -0 -0 -0 -0 -0 -0 -0 -0 -0 -0 -0 -0 -0 -0 -0 -0 -0 -0 -0 -0 -0 -0 -0 -0 -0 -0 -0 -0 -0 -0 -0 -0 -0 -0 -0 -0 -0
-0 -0 -0 -0 -0 -0 -0 -0 -0 -0 -0 -0 -0 -0 -0 -0 -0 -0 -0 -0 -0 -0 -0 -0 -0 -0 -0 -0 -0 -0 -0 -0 -0 -0 -0 -0 -0 -0 -0 -0 -0 -0 -0 -0
-0 -0 -0 -0 -0 -0 -0 -0 -0 -0 -0 -0 -0 -0 -0 -0 -0 -0 -0 -0 -0 -0 -0 -0 -0 -0 -0 -0 -0 -0 -0 -0 -0 -0 -0 -0 -0 -0 -0 -0 -0 -0 -0 -0
-0 -0 -0 -0 -0 -0 -0 -0 -0 -0 -0 -0 -0 -0 -0 -0 -0 -0 -0 -0 -0 -0 -0 -0 -0 -0 -0 -0 -0 -0 -0 -0 -0 -0 -0 -0 -0 -0 -0 -0 -0 -0 -0 -0
-0 -0 -0 -0 -0 -0 -0 -0 -0 -0 -0 -0 -0 -0 -0 -0 -0 -0 -0 -0 -0 -0 -0 -0 -0 -0 -0 -0 -0 -0 -0 -0 -0 -0 -0 -0 -0 -0 -0 -0 -0 -0 -0 -0
-0 -0 -0 -0 -0 -0 -0 -0 -0 -0 -0 -0 -0 -0 -0 -0 -0 -0 -0 -0 -0 -0 -0 -0 -0 -0 -0 -0 -0 -0 -0 -0 -0 -0 -0 -0 -0 -0 -0 -0 -0 -0 -0 -0
-0 -0 -0 -0 -0 -0 -0 -0 -0 -0 -0 -0 -0 -0 -0 -0 -0 -0 -0 -0 -0 -0 -0 -0 -0 -0 -0 -0 -0 -0 -0 -0 -0 -0 -0 -0 -0 -0 -0 -0 -0 -0 -0 -0
-0 -0 -0 -0 -0 -0 -0 -0 -0 -0 -0 -0 -0 -0 -0 -0 -0 -0 -0 -0 -0 -0 -0 -0 -0 -0 -0 -0 -0 -0 -0 -0 -0 -0 -0 -0 -0 -0 -0 -0 -0 -0 -0 -0
-0 -0 -0 -0 -0 -0 -0 -0 -0 -0 -0 -0 -0 -0 -0 -0 -0 -0 -0 -0 -0 -0 -0 -0 -0 -0 -0 -0 -0 -0 -0 -0 -0 -0 -0 -0 -0 -0 -0 -0 -0 -0 -0 -0
Wind_Speed
13 8 17 16 14 9 10 12 11 8 7 6 9 9 11 9 8 8 7 8 9 14 10 10 9 10 9 11 11 12 13 14 12 7 5 4 5 4 4 5 8 9 8 8
6 21 15 14 14 10 6 11 11 4 7 3 6 10 9 10 9 9 11 10 8 8 10 13 12 12 13 13 14 14 14 13 12 9 7 4 5 4 4 3 5 6 7 7
18 11 15 17 17 16 10 10 9 6 4 2 5 9 11 9 9 9 9 9 9 9 10 11 16 17 13 16 16 15 16 16 13 12 7 4 4 3 4 4 4 5 7 8
15 16 22 20 19 14 16 4 5 5 3 3 2 6 4 5 17 15 13 9 9 10 8 10 16 16 18 17 13 15 14 15 14 14 11 14 11 9 7 7 6 7 9 9
11 15 23 20 19 17 4 9 5 5 4 4 4 3 4 5 5 7 16 12 13 12 11 12 15 18 16 15 16 15 15 15 15 16 15 12 11 8 7 5 7 9 9 9
4 4 14 12 12 12 12 11 8 6 4 6 8 8 6 7 9 5 6 12 15 13 11 10 9 9 12 12 13 13 15 16 16 16 17 15 15 11 9 9 8 9 6 5
6 4 3 6 12 18 6 11 4 2 4 8 5 9 11 10 11 3 4 5 7 12 11 10 10 9 11 15 16 14 15 17 16 16 16 18 15 15 14 12 11 9 7 5
15 10 9 9 12 9 13 13 6 9 6 5 2 8 7 14 5 4 5 8 4 5 3 9 10 9 9 10 11 12 14 16 16 16 17 15 17 10 12 12 9 9 9 9
17 6 6 9 6 14 5 7 3 6 1 4 6 6 7 7 8 6 8 6 7 6 5 1 5 8 9 9 10 10 9 11 11 15 14 14 13 15 13 14 9 10 10 7
12 9 3 1 9 2 10 10 5 2 6 5 5 6 5 6 11 10 9 7 5 3 5 2 1 2 3 6 7 9 10 11 10 9 11 12 13 14 14 9 10 12 10 9
18 9 4 5 9 14 9 9 5 6 3 5 0 6 2 9 9 8 8 7 6 7 6 4 3 1 3 3 4 6 7 8 8 9 9 9 9 9 7 9 7 7 7 10
3 8 9 4 1 7 8 12 6 6 6 3 3 7 3 9 8 9 8 7 6 6 4 2 3 4 4 6 6 7 7 8 8 7 7 7 7 7 7 7 7 7 8 8
11 8 11 3 5 4 17 16 16 5 4 7 6 6 5 10 8 5 8 6 4 4 4 4 4 6 5 4 5 6 6 6 5 5 6 6 7 7 6 6 7 7 8 8
8 8 6 15 15 10 9 14 13 5 4 5 13 8 6 8 9 8 7 7 6 4 4 4 4 5 3 4 4 5 5 5 4 4 5 6 5 6 8 7 7 6 6 8
7 6 5 5 16 17 25 27 23 20 24 13 20 19 12 6 5 6 7 5 2 4 5 4 3 4 4 3 5 5 6 6 6 6 6 6 3 4 5 6 7 7 7 6
5 5 6 6 6 17 21 20 23 29 28 16 6 11 7 4 4 5 4 5 5 5 5 4 4 4 4 5 6 6 5 5 4 5 5 4 6 4 2 4 5 5 5 6
8 7 5 2 3 9 2 28 27 25 21 24 14 13 7 6 5 5 6 5 5 5 4 6 6 5 4 5 4 4 5 4 5 4 2 3 4 5 6 6 5 5 6 5
9 6 5 3 3 3 8 21 20 23 23 25 19 4 8 9 6 6 4 1 5 5 2 4 5 6 6 3 2 2 3 4 3 1 2 2 3 4 4 5 5 5 5 8
9 7 6 7 6 4 4 6 21 18 17 21 25 15 10 8 2 6 1 5 5 5 5 4 5 5 6 5 3 5 4 4 4 4 5 6 6 5 6 5 5 4 3 3
5 7 5 4 7 12 1 9 15 7 7 15 15 18 19 10 10 4 5 5 7 7 5 5 5 4 7 7 6 6 3 2 2 3 5 5 5 5 6 5 6 3 3 4
9 8 13 6 5 8 7 7 14 9 10 12 19 15 9 7 6 8 8 7 5 4 6 6 7 7 7 6 6 7 5 6 5 2 2 2 1 1 1 3 2 3 4 5
11 13 9 4 3 12 8 9 17 7 2 6 6 8 9 9 9 8 9 7 7 7 7 8 7 7 7 7 6 7 8 6 5 4 3 2 1 2 3 5 2 1 3 4
5 10 11 13 7 4 16 11 5 5 7 5 7 5 9 11 7 9 8 7 6 7 5 5 5 6 7 7 7 8 6 6 5 4 4 3 3 2 2 3 2 2 4 4
2 5 6 6 5 8 10 3 6 4 7 7 6 8 8 9 10 9 8 6 6 5 5 2 5 7 7 6 8 5 5 5 5 5 4 3 3 3 3 2 2 2 2 1
5 7 7 1 1 6 3 5 8 6 8 9 8 6 9 13 10 10 7 6 5 5 5 5 7 7 8 7 8 7 7 6 6 5 3 4 3 2 1 1 2 2 2 3
3 6 9 7 11 7 12 10 10 9 7 8 13 8 6 8 11 12 8 6 5 7 5 8 8 7 6 5 7 8 8 6 4 4 2 2 2 2 1 0 2 3 5 5
Wind_Direction
188 185 202 188 192 232 189 180 186 230 181 160 227 248 241 232 199 197 236 262 193 179 190 181 177 185 188 174 184 180 175 185 192 195 185 182 193 186 214 190 184 170 170 178
161 218 192 193 193 221 256 197 209 283 121 145 268 263 238 222 237 209 200 218 235 189 178 175 182 204 192 188 184 181 187 189 192 189 193 182 181 197 198 186 180 170 170 175
200 192 196 210 194 198 217 199 209 207 133 208 280 271 233 245 227 228 229 195 201 216 193 179 186 197 205 200 188 186 187 188 194 193 184 192 175 184 181 195 189 194 181 182
215 213 194 200 203 193 202 148 69 93 101 208 12 289 270 235 226 221 221 209 210 209 203 192 188 195 199 200 196 194 189 190 194 191 190 195 199 198 198 193 189 193 194 193
177 197 187 196 196 183 174 139 110 71 83 32 200 271 269 223 268 250 216 214 210 209 205 205 197 200 197 194 199 194 193 194 194 193 197 194 200 199 193 176 187 201 203 197
129 289 183 188 182 171 131 94 59 45 52 256 195 219 247 211 227 239 224 208 217 212 214 206 214 190 199 194 201 201 198 201 197 197 199 203 201 201 195 196 198 195 186 186
135 157 112 181 160 140 139 153 109 176 205 239 139 213 240 276 282 275 276 280 261 206 201 199 193 191 192 199 202 201 204 209 202 200 199 204 206 203 203 202 203 174 176 183
153 186 187 175 169 175 166 176 161 176 192 205 246 237 250 221 218 228 243 254 250 340 251 196 194 198 196 201 206 210 208 211 205 205 207 206 210 208 208 208 199 190 196 200
170 142 173 154 138 148 182 188 36 97 101 63 202 249 288 233 242 232 240 241 254 228 255 204 191 184 182 189 197 203 209 226 217 213 211 209 208 212 211 212 201 195 188 183
146 112 245 127 125 286 181 146 131 262 153 217 245 231 227 194 220 224 243 206 213 152 125 118 62 295 271 213 205 196 196 201 209 218 217 218 212 213 216 209 205 196 182 164
146 113 181 152 201 164 157 185 192 130 197 174 121 256 253 200 177 160 102 82 86 87 71 62 53 27 235 244 226 223 215 209 209 209 212 212 212 212 203 214 203 185 148 156
107 106 146 155 341 179 186 171 168 165 209 238 125 261 124 97 88 102 102 94 89 97 118 144 202 212 227 235 238 231 223 213 214 205 211 223 199 185 196 182 153 144 154 161
158 142 125 101 348 210 204 178 197 102 77 199 141 259 173 104 97 79 125 115 135 163 182 245 241 229 232 235 228 232 249 258 226 206 199 197 177 166 189 165 153 157 156 158
108 157 161 193 199 120 187 191 191 168 155 154 223 179 121 145 155 158 163 185 223 233 252 262 295 279 267 221 223 226 226 227 218 199 202 216 184 166 165 161 156 153 153 156
123 130 177 164 159 166 178 182 183 197 218 187 229 224 223 190 198 153 172 213 271 303 295 284 258 269 264 252 235 233 212 194 178 192 200 217 194 169 157 162 167 156 157 165
158 135 114 1 162 164 183 183 191 202 214 227 242 270 195 165 140 159 256 285 283 277 265 307 322 303 266 243 232 225 227 205 169 199 219 197 159 145 135 128 145 151 156 158
138 127 116 159 76 87 320 200 199 209 205 215 210 222 119 125 144 184 242 241 245 270 329 327 319 311 298 256 220 231 216 172 177 188 210 159 141 147 164 159 158 166 173 151
143 95 79 136 112 195 249 177 204 210 208 217 234 202 192 197 224 205 185 166 266 267 300 10 347 337 337 350 73 122 131 134 144 115 160 160 175 192 173 165 179 167 165 178
136 99 106 148 211 280 208 210 189 181 222 217 224 225 228 240 247 261 311 66 86 78 50 28 358 325 345 15 45 90 102 125 143 191 205 205 191 179 179 174 174 179 167 187
116 121 110 148 156 210 218 174 176 99 267 203 206 213 218 201 228 186 125 85 65 53 43 18 335 9 33 19 49 61 48 38 292 259 239 220 197 180 193 175 168 158 165 177
154 176 189 176 207 263 201 165 119 143 234 197 202 204 183 176 193 150 120 86 88 71 37 14 24 50 30 19 45 55 39 12 326 302 242 219 134 186 170 131 133 148 154 154
165 162 186 127 147 255 170 141 153 198 108 161 129 158 160 128 117 119 116 108 88 64 36 31 46 45 26 16 43 51 39 352 11 39 41 23 108 137 135 132 97 93 165 165
161 196 169 189 192 212 175 169 158 139 142 183 128 131 122 128 139 137 130 117 94 78 64 45 67 63 33 22 34 58 3 8 30 44 34 31 41 48 67 96 108 142 170 168
212 152 143 103 209 168 189 48 136 156 155 139 124 138 129 129 125 111 106 105 97 78 61 33 73 60 46 22 40 43 13 13 55 53 43 46 67 35 44 53 134 153 186 202
188 118 148 98 8 63 135 183 164 118 109 109 90 103 121 121 117 116 109 100 93 85 65 57 67 61 40 21 32 19 15 20 59 60 40 34 43 56 28 303 202 219 256 190
186 166 179 213 178 162 199 162 145 140 144 139 124 98 79 110 117 116 102 87 88 70 49 62 51 54 33 33 22 6 357 8 53 72 60 62 63 67 52 125 307 318 280 301